Location: Moscow Pond
(43.6842°N, 73.2366°W)
Time: 20:06:55
(UTC+00:00)

PAYLOAD A - Pass Details

Date: 08 November 2025
Orbit: 690 x 828 km, 98.6° (Epoch: 04 December)

Event Time Altitude Azimuth Distance (km) Brightness Sun altitude
Rises 09:09:53 0° 13° (NNE) 3,378 7.5 -27.0°
Reaches altitude 10° 09:12:16 10° 14° (NNE) 2,436 6.8 -26.6°
Maximum altitude 09:17:41 89° 103° (ESE) 821 4.0 -25.6°
Enters shadow 09:20:37 28° 195° (SSW) 1,481 5.3 -25.1°
